Location: Callao
(39.8979°N, 113.7141°W)
Time: 16:29:25
(UTC+00:00)

AO-91 - Pass Details

Date: 17 May 2021
Orbit: 453 x 808 km, 97.7° (Epoch: 15 June)

Event Time Altitude Azimuth Distance (km) Brightness Sun altitude
Rises 05:54:38 0° 33° (NNE) 2,836 ? -26.6°
Reaches altitude 10° 05:57:30 10° 56° (NE) 2,003 ? -26.8°
Enters shadow 05:57:49 11° 59° (ENE) 1,933 ? -26.8°
